Wetterdaten: Donnerstag, 11.10.2018
Datum Zeit Temp. A. Aussen2m Boden Feuchte A. Feuchte 2 Luftdruck Regen Wind Richtung Richtung Sonnenschein
11.10.2018 00:00 16,1 C 16,0 C 10,8 C 67 % 72 % 1009,7 hPa 0,0 l/m 4,2 km/h (1 Bft) O 85 0 min
11.10.2018 00:05 16,1 C 16,0 C 10,8 C 67 % 73 % 1009,7 hPa 0,0 l/m 9,7 km/h (2 Bft) O-SO 105 0 min
11.10.2018 00:10 16,2 C 15,9 C 10,8 C 67 % 73 % 1009,7 hPa 0,0 l/m 8,5 km/h (2 Bft) O-SO 105 0 min
11.10.2018 00:15 16,1 C 15,9 C 10,8 C 67 % 73 % 1009,7 hPa 0,0 l/m 3,0 km/h (1 Bft) S-SO 155 0 min
11.10.2018 00:20 16,1 C 15,8 C 10,8 C 67 % 72 % 1009,7 hPa 0,0 l/m 1,2 km/h (1 Bft) W-SW 250 0 min
11.10.2018 00:25 15,9 C 15,4 C 10,8 C 67 % 72 % 1009,7 hPa 0,0 l/m 0,0 km/h (0 Bft) SO 145 0 min
11.10.2018 00:30 15,8 C 15,3 C 10,8 C 68 % 73 % 1009,7 hPa 0,0 l/m 1,2 km/h (1 Bft) O-SO 110 0 min
11.10.2018 00:35 15,8 C 15,2 C 10,8 C 69 % 74 % 1008,7 hPa 0,0 l/m 0,6 km/h (0 Bft) O-SO 110 0 min
11.10.2018 00:40 16,0 C 15,2 C 10,8 C 69 % 75 % 1008,7 hPa 0,0 l/m 3,6 km/h (1 Bft) O-SO 120 0 min
11.10.2018 00:45 16,2 C 15,3 C 10,8 C 68 % 75 % 1008,7 hPa 0,0 l/m 8,5 km/h (2 Bft) O-SO 110 0 min
11.10.2018 00:50 16,2 C 15,3 C 10,8 C 68 % 75 % 1009,7 hPa 0,0 l/m 5,4 km/h (2 Bft) SO 145 0 min
11.10.2018 00:55 16,3 C 15,4 C 10,8 C 67 % 75 % 1009,7 hPa 0,0 l/m 7,3 km/h (2 Bft) S-SO 150 0 min
11.10.2018 01:00 16,2 C 15,5 C 10,8 C 67 % 75 % 1009,7 hPa 0,0 l/m 8,5 km/h (2 Bft) O 90 0 min
11.10.2018 01:05 16,3 C 15,6 C 10,8 C 67 % 74 % 1009,7 hPa 0,0 l/m 6,7 km/h (2 Bft) S-SO 160 0 min
11.10.2018 01:10 16,3 C 15,7 C 10,8 C 67 % 74 % 1009,7 hPa 0,0 l/m 6,1 km/h (2 Bft) SO 135 0 min
11.10.2018 01:15 16,3 C 15,8 C 10,8 C 67 % 74 % 1009,7 hPa 0,0 l/m 4,8 km/h (1 Bft) S-SO 165 0 min
11.10.2018 01:20 16,2 C 15,8 C 10,8 C 67 % 73 % 1009,7 hPa 0,0 l/m 7,9 km/h (2 Bft) S 170 0 min
11.10.2018 01:25 16,3 C 15,8 C 10,8 C 66 % 73 % 1009,7 hPa 0,0 l/m 6,1 km/h (2 Bft) SO 130 0 min
11.10.2018 01:30 16,3 C 15,9 C 10,8 C 66 % 73 % 1009,7 hPa 0,0 l/m 5,4 km/h (2 Bft) O 100 0 min
11.10.2018 01:35 16,3 C 15,8 C 10,8 C 66 % 73 % 1009,7 hPa 0,0 l/m 4,2 km/h (1 Bft) S-SO 165 0 min
11.10.2018 01:40 16,2 C 15,8 C 10,8 C 66 % 73 % 1009,7 hPa 0,0 l/m 9,7 km/h (2 Bft) S-SO 150 0 min
11.10.2018 01:45 16,4 C 15,9 C 10,8 C 66 % 73 % 1009,7 hPa 0,0 l/m 6,1 km/h (2 Bft) S-SO 155 0 min
11.10.2018 01:50 16,4 C 15,9 C 10,8 C 65 % 72 % 1008,7 hPa 0,0 l/m 9,7 km/h (2 Bft) SO 135 0 min
11.10.2018 01:55 16,4 C 16,0 C 10,8 C 65 % 72 % 1008,7 hPa 0,0 l/m 8,5 km/h (2 Bft) SO 125 0 min
11.10.2018 02:00 16,7 C 16,1 C 10,8 C 65 % 72 % 1008,7 hPa 0,0 l/m 11,5 km/h (2 Bft) S-SO 160 0 min
11.10.2018 02:05 16,8 C 16,3 C 10,8 C 64 % 72 % 1009,7 hPa 0,0 l/m 13,3 km/h (3 Bft) S-SO 150 0 min
11.10.2018 02:10 16,9 C 16,4 C 10,8 C 64 % 71 % 1009,7 hPa 0,0 l/m 12,1 km/h (2 Bft) S-SO 165 0 min
11.10.2018 02:15 16,9 C 16,5 C 10,8 C 63 % 71 % 1009,7 hPa 0,0 l/m 15,1 km/h (3 Bft) SO 145 0 min
11.10.2018 02:20 16,8 C 16,6 C 10,8 C 63 % 70 % 1010,7 hPa 0,0 l/m 12,1 km/h (2 Bft) S-SO 165 0 min
11.10.2018 02:25 16,8 C 16,5 C 10,8 C 63 % 70 % 1010,7 hPa 0,0 l/m 12,1 km/h (2 Bft) SO 145 0 min
11.10.2018 02:30 16,8 C 16,6 C 10,8 C 63 % 70 % 1010,7 hPa 0,0 l/m 13,9 km/h (3 Bft) SO 140 0 min
11.10.2018 02:35 16,8 C 16,6 C 10,8 C 63 % 70 % 1008,7 hPa 0,0 l/m 13,3 km/h (3 Bft) S 190 0 min
11.10.2018 02:40 16,8 C 16,6 C 10,8 C 63 % 70 % 1008,7 hPa 0,0 l/m 10,3 km/h (2 Bft) S 170 0 min
11.10.2018 02:45 16,8 C 16,6 C 10,8 C 63 % 70 % 1008,7 hPa 0,0 l/m 11,5 km/h (2 Bft) SO 140 0 min
11.10.2018 02:50 16,8 C 16,6 C 10,8 C 63 % 70 % 1009,7 hPa 0,0 l/m 11,5 km/h (2 Bft) S 180 0 min
11.10.2018 02:55 16,7 C 16,5 C 10,8 C 63 % 70 % 1009,7 hPa 0,0 l/m 13,3 km/h (3 Bft) S-SO 150 0 min
11.10.2018 03:00 16,7 C 16,5 C 10,8 C 63 % 70 % 1009,7 hPa 0,0 l/m 9,7 km/h (2 Bft) S-SO 150 0 min
11.10.2018 03:05 16,6 C 16,5 C 10,8 C 63 % 70 % 1009,7 hPa 0,0 l/m 8,5 km/h (2 Bft) SO 140 0 min
11.10.2018 03:10 16,6 C 16,4 C 10,8 C 64 % 70 % 1009,7 hPa 0,0 l/m 6,7 km/h (2 Bft) O-SO 110 0 min
11.10.2018 03:15 16,5 C 16,3 C 10,8 C 64 % 70 % 1009,7 hPa 0,0 l/m 11,5 km/h (2 Bft) S-SO 160 0 min
11.10.2018 03:20 16,3 C 16,2 C 10,8 C 64 % 70 % 1009,7 hPa 0,0 l/m 15,7 km/h (3 Bft) SO 145 0 min
11.10.2018 03:25 16,3 C 16,2 C 10,8 C 64 % 71 % 1009,7 hPa 0,0 l/m 8,5 km/h (2 Bft) S-SO 150 0 min
11.10.2018 03:30 16,3 C 16,2 C 10,8 C 65 % 71 % 1009,7 hPa 0,0 l/m 11,5 km/h (2 Bft) S-SO 150 0 min
11.10.2018 03:35 16,5 C 16,2 C 10,8 C 64 % 71 % 1009,7 hPa 0,0 l/m 13,9 km/h (3 Bft) SO 135 0 min
11.10.2018 03:40 16,6 C 16,2 C 10,8 C 64 % 71 % 1009,7 hPa 0,0 l/m 10,3 km/h (2 Bft) S-SO 165 0 min
11.10.2018 03:45 16,4 C 16,2 C 10,8 C 64 % 70 % 1009,7 hPa 0,0 l/m 10,9 km/h (2 Bft) O-NO 60 0 min
11.10.2018 03:50 16,2 C 16,2 C 10,8 C 64 % 71 % 1008,7 hPa 0,0 l/m 6,7 km/h (2 Bft) SO 140 0 min
11.10.2018 03:55 16,1 C 16,0 C 10,8 C 65 % 71 % 1008,7 hPa 0,0 l/m 5,4 km/h (2 Bft) SO 130 0 min
11.10.2018 04:00 16,0 C 15,9 C 10,8 C 65 % 71 % 1008,7 hPa 0,0 l/m 7,3 km/h (2 Bft) O 85 0 min
11.10.2018 04:05 15,9 C 15,8 C 10,8 C 66 % 71 % 1008,7 hPa 0,0 l/m 4,8 km/h (1 Bft) S-SW 195 0 min
11.10.2018 04:10 15,8 C 15,8 C 10,8 C 66 % 71 % 1008,7 hPa 0,0 l/m 4,8 km/h (1 Bft) SO 135 0 min
11.10.2018 04:15 15,7 C 15,6 C 10,8 C 66 % 71 % 1008,7 hPa 0,0 l/m 4,8 km/h (1 Bft) S-SO 150 0 min
11.10.2018 04:20 15,6 C 15,5 C 10,8 C 67 % 71 % 1008,7 hPa 0,0 l/m 3,6 km/h (1 Bft) S 170 0 min
11.10.2018 04:25 15,6 C 15,4 C 10,8 C 67 % 73 % 1008,7 hPa 0,0 l/m 3,6 km/h (1 Bft) W-SW 240 0 min
11.10.2018 04:30 15,6 C 15,4 C 10,8 C 67 % 72 % 1008,7 hPa 0,0 l/m 6,1 km/h (2 Bft) SO 125 0 min
11.10.2018 04:35 15,8 C 15,3 C 10,8 C 67 % 73 % 1008,7 hPa 0,0 l/m 8,5 km/h (2 Bft) SO 135 0 min
11.10.2018 04:40 15,9 C 15,4 C 10,8 C 66 % 73 % 1008,7 hPa 0,0 l/m 6,1 km/h (2 Bft) SO 135 0 min
11.10.2018 04:45 15,9 C 15,4 C 10,8 C 66 % 73 % 1008,7 hPa 0,0 l/m 6,7 km/h (2 Bft) SO 140 0 min
11.10.2018 04:50 15,9 C 15,4 C 10,8 C 66 % 73 % 1008,7 hPa 0,0 l/m 6,7 km/h (2 Bft) S-SO 165 0 min
11.10.2018 04:55 15,9 C 15,4 C 10,8 C 66 % 73 % 1008,7 hPa 0,0 l/m 7,9 km/h (2 Bft) O-SO 120 0 min
11.10.2018 05:00 15,7 C 15,4 C 10,8 C 67 % 73 % 1008,7 hPa 0,0 l/m 6,1 km/h (2 Bft) O-NO 75 0 min
11.10.2018 05:05 15,5 C 15,3 C 10,8 C 67 % 73 % 1009,7 hPa 0,0 l/m 9,1 km/h (2 Bft) O-SO 115 0 min
11.10.2018 05:10 15,4 C 15,2 C 10,8 C 68 % 74 % 1009,7 hPa 0,0 l/m 6,1 km/h (2 Bft) O-SO 115 0 min
11.10.2018 05:15 15,3 C 15,2 C 10,8 C 68 % 74 % 1009,7 hPa 0,0 l/m 4,8 km/h (1 Bft) O-SO 105 0 min
11.10.2018 05:20 15,2 C 15,1 C 10,8 C 68 % 74 % 1008,7 hPa 0,0 l/m 6,7 km/h (2 Bft) S-SO 155 0 min
11.10.2018 05:25 15,2 C 15,0 C 10,8 C 69 % 74 % 1008,7 hPa 0,0 l/m 5,4 km/h (2 Bft) SO 135 0 min
11.10.2018 05:30 15,3 C 15,0 C 10,8 C 69 % 74 % 1008,7 hPa 0,0 l/m 6,7 km/h (2 Bft) S 185 0 min
11.10.2018 05:35 15,3 C 15,1 C 10,8 C 68 % 74 % 1008,7 hPa 0,0 l/m 10,9 km/h (2 Bft) S 170 0 min
11.10.2018 05:40 15,4 C 15,1 C 10,8 C 68 % 74 % 1008,7 hPa 0,0 l/m 7,3 km/h (2 Bft) SO 140 0 min
11.10.2018 05:45 15,3 C 15,1 C 10,8 C 68 % 74 % 1008,7 hPa 0,0 l/m 4,2 km/h (1 Bft) SW 225 0 min
11.10.2018 05:50 15,3 C 15,0 C 10,8 C 69 % 74 % 1009,7 hPa 0,0 l/m 9,7 km/h (2 Bft) S 175 0 min
11.10.2018 05:55 15,3 C 15,1 C 10,8 C 69 % 75 % 1009,7 hPa 0,0 l/m 9,7 km/h (2 Bft) S-SO 165 0 min
11.10.2018 06:00 15,3 C 15,0 C 10,8 C 69 % 75 % 1009,7 hPa 0,0 l/m 8,5 km/h (2 Bft) SO 130 0 min
11.10.2018 06:05 15,3 C 15,1 C 10,8 C 69 % 75 % 1008,7 hPa 0,0 l/m 7,9 km/h (2 Bft) SO 125 0 min
11.10.2018 06:10 15,2 C 15,0 C 10,8 C 69 % 75 % 1008,7 hPa 0,0 l/m 10,9 km/h (2 Bft) S-SO 165 0 min
11.10.2018 06:15 15,2 C 15,0 C 10,8 C 69 % 74 % 1008,7 hPa 0,0 l/m 9,7 km/h (2 Bft) S-SO 155 0 min
11.10.2018 06:20 15,1 C 15,0 C 10,8 C 69 % 75 % 1008,7 hPa 0,0 l/m 8,5 km/h (2 Bft) SO 135 0 min
11.10.2018 06:25 15,0 C 14,9 C 10,8 C 70 % 74 % 1008,7 hPa 0,0 l/m 3,6 km/h (1 Bft) S 190 0 min
11.10.2018 06:30 14,8 C 14,8 C 10,8 C 71 % 75 % 1008,7 hPa 0,0 l/m 4,8 km/h (1 Bft) S-SW 200 0 min
11.10.2018 06:35 14,7 C 14,7 C 10,8 C 71 % 76 % 1008,7 hPa 0,0 l/m 6,7 km/h (2 Bft) O 85 0 min
11.10.2018 06:40 14,6 C 14,6 C 10,8 C 71 % 76 % 1008,7 hPa 0,0 l/m 6,7 km/h (2 Bft) S-SO 150 0 min
11.10.2018 06:45 14,7 C 14,6 C 10,8 C 71 % 76 % 1008,7 hPa 0,0 l/m 10,9 km/h (2 Bft) S 185 0 min
11.10.2018 06:50 14,6 C 14,5 C 10,8 C 71 % 76 % 1007,7 hPa 0,0 l/m 7,9 km/h (2 Bft) SO 140 0 min
11.10.2018 06:55 14,7 C 14,5 C 10,8 C 71 % 76 % 1007,7 hPa 0,0 l/m 9,7 km/h (2 Bft) S-SO 150 0 min
11.10.2018 07:00 14,6 C 14,5 C 10,8 C 72 % 76 % 1007,7 hPa 0,0 l/m 9,7 km/h (2 Bft) SO 145 0 min
11.10.2018 07:05 14,6 C 14,4 C 10,8 C 71 % 76 % 1008,7 hPa 0,0 l/m 7,3 km/h (2 Bft) O-SO 105 0 min
11.10.2018 07:10 14,6 C 14,4 C 10,8 C 71 % 76 % 1008,7 hPa 0,0 l/m 8,5 km/h (2 Bft) S 175 0 min
11.10.2018 07:15 14,6 C 14,4 C 10,8 C 72 % 76 % 1008,7 hPa 0,0 l/m 5,4 km/h (2 Bft) S 175 0 min
11.10.2018 07:20 14,5 C 14,4 C 10,8 C 72 % 77 % 1009,7 hPa 0,0 l/m 6,1 km/h (2 Bft) SO 135 0 min
11.10.2018 07:25 14,5 C 14,4 C 10,8 C 72 % 77 % 1009,7 hPa 0,0 l/m 6,7 km/h (2 Bft) O 90 0 min
11.10.2018 07:30 14,5 C 14,4 C 10,8 C 72 % 77 % 1009,7 hPa 0,0 l/m 9,7 km/h (2 Bft) SO 125 0 min
11.10.2018 07:35 14,6 C 14,4 C 10,8 C 72 % 77 % 1008,7 hPa 0,0 l/m 9,1 km/h (2 Bft) O 100 0 min
11.10.2018 07:40 14,5 C 14,4 C 10,8 C 72 % 77 % 1008,7 hPa 0,0 l/m 9,7 km/h (2 Bft) O-SO 105 0 min
11.10.2018 07:45 14,5 C 14,4 C 10,8 C 72 % 77 % 1008,7 hPa 0,0 l/m 10,9 km/h (2 Bft) S-SO 155 0 min
11.10.2018 07:50 14,5 C 14,4 C 10,8 C 72 % 77 % 1009,7 hPa 0,0 l/m 15,7 km/h (3 Bft) S-SW 200 0 min
11.10.2018 07:55 14,8 C 14,4 C 10,8 C 71 % 77 % 1009,7 hPa 0,0 l/m 12,7 km/h (3 Bft) S-SO 150 0 min
11.10.2018 08:00 14,8 C 14,4 C 10,8 C 71 % 77 % 1009,7 hPa 0,0 l/m 9,1 km/h (2 Bft) S-SO 150 0 min
11.10.2018 08:05 14,9 C 14,4 C 10,8 C 71 % 77 % 1008,7 hPa 0,0 l/m 9,7 km/h (2 Bft) SO 145 0 min
11.10.2018 08:10 15,0 C 14,4 C 10,8 C 71 % 77 % 1008,7 hPa 0,0 l/m 18,2 km/h (3 Bft) SO 135 0 min
11.10.2018 08:15 15,2 C 14,4 C 10,8 C 70 % 77 % 1008,7 hPa 0,0 l/m 15,1 km/h (3 Bft) SO 130 0 min
11.10.2018 08:20 15,2 C 15,0 C 10,8 C 70 % 76 % 1008,7 hPa 0,0 l/m 13,3 km/h (3 Bft) S-SO 160 0 min
11.10.2018 08:25 15,2 C 15,0 C 10,8 C 70 % 76 % 1008,7 hPa 0,0 l/m 11,5 km/h (2 Bft) SO 140 0 min
11.10.2018 08:30 15,3 C 15,1 C 10,8 C 69 % 76 % 1008,7 hPa 0,0 l/m 19,4 km/h (3 Bft) S-SW 195 0 min
11.10.2018 08:35 15,7 C 15,3 C 10,8 C 68 % 76 % 1009,7 hPa 0,0 l/m 15,7 km/h (3 Bft) SO 145 0 min
11.10.2018 08:40 15,9 C 15,4 C 10,8 C 68 % 75 % 1009,7 hPa 0,0 l/m 16,3 km/h (3 Bft) S 175 0 min
11.10.2018 08:45 16,1 C 15,4 C 10,8 C 67 % 75 % 1009,7 hPa 0,0 l/m 16,9 km/h (3 Bft) S-SO 160 0 min
11.10.2018 08:50 16,3 C 15,4 C 10,8 C 66 % 75 % 1008,7 hPa 0,0 l/m 18,2 km/h (3 Bft) SO 140 0 min
11.10.2018 08:55 16,4 C 15,7 C 10,8 C 66 % 74 % 1008,7 hPa 0,0 l/m 20,0 km/h (4 Bft) S 185 0 min
11.10.2018 09:00 16,3 C 15,8 C 10,8 C 66 % 74 % 1008,7 hPa 0,0 l/m 18,8 km/h (3 Bft) S 180 0 min
11.10.2018 09:05 16,2 C 15,9 C 10,8 C 67 % 74 % 1010,7 hPa 0,0 l/m 23,6 km/h (4 Bft) S-SO 165 0 min
11.10.2018 09:10 16,2 C 16,0 C 10,8 C 67 % 74 % 1010,7 hPa 0,0 l/m 21,8 km/h (4 Bft) S 170 0 min
11.10.2018 09:15 16,3 C 16,0 C 10,8 C 66 % 74 % 1010,7 hPa 0,0 l/m 20,6 km/h (4 Bft) S-SO 150 0 min
11.10.2018 09:20 16,3 C 16,2 C 10,8 C 66 % 74 % 1010,7 hPa 0,0 l/m 16,3 km/h (3 Bft) SO 125 0 min
11.10.2018 09:25 16,4 C 16,2 C 10,8 C 66 % 73 % 1010,7 hPa 0,0 l/m 16,9 km/h (3 Bft) SO 145 0 min
11.10.2018 09:30 16,4 C 16,2 C 10,8 C 66 % 73 % 1010,7 hPa 0,0 l/m 21,8 km/h (4 Bft) SO 135 0 min
11.10.2018 09:35 16,6 C 16,2 C 10,8 C 66 % 73 % 1010,7 hPa 0,0 l/m 18,2 km/h (3 Bft) O-SO 110 0 min
11.10.2018 09:40 16,6 C 16,2 C 10,8 C 66 % 73 % 1010,7 hPa 0,0 l/m 21,2 km/h (4 Bft) SO 140 0 min
11.10.2018 09:45 16,8 C 16,6 C 10,8 C 65 % 73 % 1010,7 hPa 0,0 l/m 20,6 km/h (4 Bft) S-SO 150 0 min
11.10.2018 09:50 17,0 C 16,8 C 10,8 C 65 % 72 % 1009,7 hPa 0,0 l/m 24,8 km/h (4 Bft) O-SO 115 2 min
11.10.2018 09:55 17,1 C 17,0 C 10,8 C 65 % 72 % 1009,7 hPa 0,0 l/m 21,8 km/h (4 Bft) SO 140 3 min
11.10.2018 10:00 17,4 C 17,1 C 10,8 C 64 % 72 % 1009,7 hPa 0,0 l/m 21,8 km/h (4 Bft) W-SW 245 7 min
11.10.2018 10:05 17,5 C 17,4 C 10,8 C 63 % 71 % 1010,7 hPa 0,0 l/m 20,0 km/h (4 Bft) S-SO 165 3 min
11.10.2018 10:10 17,7 C 17,5 C 10,8 C 63 % 70 % 1010,7 hPa 0,0 l/m 16,9 km/h (3 Bft) S 185 5 min
11.10.2018 10:15 17,7 C 17,6 C 10,8 C 63 % 70 % 1010,7 hPa 0,0 l/m 20,6 km/h (4 Bft) S 170 5 min
11.10.2018 10:20 17,8 C 17,7 C 10,8 C 62 % 70 % 1010,7 hPa 0,0 l/m 20,6 km/h (4 Bft) S 170 5 min
11.10.2018 10:25 17,9 C 17,8 C 10,8 C 62 % 69 % 1010,7 hPa 0,0 l/m 20,6 km/h (4 Bft) S 185 5 min
11.10.2018 10:30 18,2 C 18,0 C 10,8 C 61 % 69 % 1010,7 hPa 0,0 l/m 18,2 km/h (3 Bft) S 175 5 min
11.10.2018 10:35 18,2 C 18,0 C 10,8 C 61 % 69 % 1010,7 hPa 0,0 l/m 14,5 km/h (3 Bft) SO 145 3 min
11.10.2018 10:40 18,1 C 18,2 C 10,8 C 61 % 69 % 1010,7 hPa 0,0 l/m 19,4 km/h (3 Bft) S 185 3 min
11.10.2018 10:45 18,4 C 18,2 C 10,8 C 61 % 69 % 1010,7 hPa 0,0 l/m 16,9 km/h (3 Bft) O-SO 120 3 min
11.10.2018 10:50 18,6 C 18,4 C 10,8 C 60 % 68 % 1009,7 hPa 0,0 l/m 17,6 km/h (3 Bft) O-SO 120 5 min
11.10.2018 10:55 18,9 C 18,6 C 10,8 C 59 % 68 % 1009,7 hPa 0,0 l/m 16,9 km/h (3 Bft) S-SO 150 5 min
11.10.2018 11:00 19,1 C 18,9 C 10,8 C 58 % 67 % 1009,7 hPa 0,0 l/m 15,1 km/h (3 Bft) O-SO 120 5 min
11.10.2018 11:05 19,4 C 19,2 C 10,8 C 58 % 67 % 1010,7 hPa 0,0 l/m 18,2 km/h (3 Bft) S 190 3 min
11.10.2018 11:10 19,9 C 19,4 C 10,8 C 56 % 67 % 1010,6 hPa 0,0 l/m 13,9 km/h (3 Bft) SO 140 6 min
11.10.2018 11:15 20,3 C 19,8 C 10,8 C 55 % 66 % 1010,6 hPa 0,0 l/m 13,3 km/h (3 Bft) O-SO 120 6 min
11.10.2018 11:20 20,1 C 19,8 C 10,8 C 55 % 65 % 1010,6 hPa 0,0 l/m 13,3 km/h (3 Bft) S 185 1 min
11.10.2018 11:25 20,2 C 19,8 C 10,8 C 55 % 65 % 1010,6 hPa 0,0 l/m 12,7 km/h (3 Bft) S-SW 210 6 min
11.10.2018 11:30 20,4 C 20,0 C 10,8 C 55 % 66 % 1010,6 hPa 0,0 l/m 15,1 km/h (3 Bft) S 180 5 min
11.10.2018 11:35 20,9 C 20,2 C 10,8 C 54 % 65 % 1010,6 hPa 0,0 l/m 13,3 km/h (3 Bft) S-SO 165 6 min
11.10.2018 11:40 20,7 C 20,3 C 10,8 C 54 % 64 % 1010,6 hPa 0,0 l/m 12,7 km/h (3 Bft) O 95 3 min
11.10.2018 11:45 20,6 C 20,3 C 10,8 C 54 % 63 % 1010,6 hPa 0,0 l/m 7,9 km/h (2 Bft) S-SW 205 1 min
11.10.2018 11:50 20,9 C 20,4 C 10,8 C 54 % 63 % 1009,6 hPa 0,0 l/m 11,5 km/h (2 Bft) O 90 5 min
11.10.2018 11:55 21,3 C 20,6 C 10,8 C 53 % 64 % 1009,6 hPa 0,0 l/m 10,3 km/h (2 Bft) S 170 5 min
11.10.2018 12:00 21,4 C 20,8 C 10,8 C 53 % 64 % 1009,6 hPa 0,0 l/m 10,9 km/h (2 Bft) S-SO 150 3 min
11.10.2018 12:05 21,3 C 20,6 C 10,8 C 53 % 63 % 1010,6 hPa 0,0 l/m 11,5 km/h (2 Bft) O-SO 110 7 min
11.10.2018 12:10 21,7 C 20,8 C 10,8 C 52 % 64 % 1010,6 hPa 0,0 l/m 9,7 km/h (2 Bft) S-SO 155 3 min
11.10.2018 12:15 21,6 C 20,8 C 10,8 C 52 % 64 % 1010,6 hPa 0,0 l/m 12,1 km/h (2 Bft) S 190 5 min
11.10.2018 12:20 21,6 C 20,9 C 10,8 C 52 % 64 % 1010,6 hPa 0,0 l/m 12,7 km/h (3 Bft) SO 125 2 min
11.10.2018 12:25 21,7 C 20,9 C 10,8 C 52 % 63 % 1010,6 hPa 0,0 l/m 13,9 km/h (3 Bft) SO 135 4 min
11.10.2018 12:30 22,0 C 21,1 C 10,8 C 52 % 63 % 1010,6 hPa 0,0 l/m 12,1 km/h (2 Bft) O-NO 70 4 min
11.10.2018 12:35 22,1 C 21,3 C 10,8 C 51 % 63 % 1009,6 hPa 0,0 l/m 15,7 km/h (3 Bft) S-SO 150 6 min
11.10.2018 12:40 22,6 C 21,6 C 10,8 C 50 % 62 % 1009,6 hPa 0,0 l/m 12,1 km/h (2 Bft) SO 135 4 min
11.10.2018 12:45 22,6 C 21,7 C 10,8 C 49 % 62 % 1009,6 hPa 0,0 l/m 14,5 km/h (3 Bft) S-SO 155 6 min
11.10.2018 12:50 22,5 C 21,8 C 10,8 C 49 % 61 % 1010,6 hPa 0,0 l/m 16,3 km/h (3 Bft) S 175 7 min
11.10.2018 12:55 22,6 C 22,0 C 10,8 C 49 % 61 % 1010,6 hPa 0,0 l/m 15,7 km/h (3 Bft) S-SO 155 3 min
11.10.2018 13:00 22,8 C 22,1 C 10,8 C 49 % 60 % 1010,6 hPa 0,0 l/m 12,7 km/h (3 Bft) S-SO 160 5 min
11.10.2018 13:05 22,9 C 22,2 C 10,8 C 49 % 60 % 1009,6 hPa 0,0 l/m 15,7 km/h (3 Bft) O-SO 105 5 min
11.10.2018 13:10 22,7 C 22,2 C 10,8 C 49 % 60 % 1009,6 hPa 0,0 l/m 12,7 km/h (3 Bft) NO 55 1 min
11.10.2018 13:15 22,9 C 22,2 C 10,8 C 48 % 59 % 1009,6 hPa 0,0 l/m 11,5 km/h (2 Bft) S-SO 160 2 min
11.10.2018 13:20 23,0 C 22,4 C 10,8 C 48 % 60 % 1009,6 hPa 0,0 l/m 15,7 km/h (3 Bft) SO 135 5 min
11.10.2018 13:25 22,8 C 22,4 C 10,8 C 48 % 59 % 1009,6 hPa 0,0 l/m 15,7 km/h (3 Bft) S-SO 165 2 min
11.10.2018 13:30 23,2 C 22,6 C 10,8 C 47 % 58 % 1009,6 hPa 0,0 l/m 10,3 km/h (2 Bft) S-SO 155 5 min
11.10.2018 13:35 23,1 C 22,6 C 10,8 C 46 % 56 % 1009,6 hPa 0,0 l/m 16,3 km/h (3 Bft) S 185 1 min
11.10.2018 13:40 22,7 C 22,6 C 10,8 C 46 % 56 % 1009,6 hPa 0,0 l/m 16,9 km/h (3 Bft) S-SO 155 1 min
11.10.2018 13:45 22,9 C 22,7 C 10,8 C 47 % 57 % 1009,6 hPa 0,0 l/m 13,3 km/h (3 Bft) S 185 1 min
11.10.2018 13:50 22,7 C 22,7 C 10,8 C 48 % 58 % 1010,6 hPa 0,0 l/m 12,1 km/h (2 Bft) S-SO 165 0 min
11.10.2018 13:55 22,6 C 22,6 C 10,8 C 48 % 58 % 1010,6 hPa 0,0 l/m 14,5 km/h (3 Bft) S 170 0 min
11.10.2018 14:00 22,6 C 22,5 C 10,8 C 48 % 58 % 1010,6 hPa 0,0 l/m 12,7 km/h (3 Bft) SO 140 0 min
11.10.2018 14:05 22,4 C 22,4 C 10,8 C 49 % 58 % 1009,6 hPa 0,0 l/m 10,9 km/h (2 Bft) S-SO 155 0 min
11.10.2018 14:10 22,4 C 22,5 C 10,8 C 49 % 58 % 1009,6 hPa 0,0 l/m 10,9 km/h (2 Bft) SO 145 0 min
11.10.2018 14:15 22,6 C 22,5 C 10,8 C 49 % 59 % 1009,6 hPa 0,0 l/m 12,1 km/h (2 Bft) S-SO 165 0 min
11.10.2018 14:20 22,7 C 22,6 C 10,8 C 49 % 58 % 1009,6 hPa 0,0 l/m 15,1 km/h (3 Bft) S-SO 165 0 min
11.10.2018 14:25 22,8 C 22,6 C 10,8 C 49 % 59 % 1009,6 hPa 0,0 l/m 10,3 km/h (2 Bft) SO 125 0 min
11.10.2018 14:30 22,8 C 22,7 C 10,8 C 48 % 58 % 1009,6 hPa 0,0 l/m 16,9 km/h (3 Bft) SO 145 0 min
11.10.2018 14:35 22,8 C 22,6 C 10,8 C 48 % 58 % 1009,6 hPa 0,0 l/m 19,4 km/h (3 Bft) O-SO 115 0 min
11.10.2018 14:40 22,7 C 22,7 C 10,8 C 48 % 58 % 1009,6 hPa 0,0 l/m 16,9 km/h (3 Bft) S 185 0 min
11.10.2018 14:45 22,5 C 22,6 C 10,8 C 48 % 57 % 1009,6 hPa 0,0 l/m 19,4 km/h (3 Bft) S-SO 160 0 min
11.10.2018 14:50 22,4 C 22,5 C 10,8 C 48 % 57 % 1009,6 hPa 0,0 l/m 18,8 km/h (3 Bft) SO 135 0 min
11.10.2018 14:55 22,3 C 22,4 C 10,8 C 48 % 57 % 1009,6 hPa 0,0 l/m 15,7 km/h (3 Bft) SO 140 0 min
11.10.2018 15:00 22,3 C 22,4 C 10,8 C 48 % 57 % 1009,6 hPa 0,0 l/m 17,6 km/h (3 Bft) S-SO 165 0 min
11.10.2018 15:05 22,2 C 22,3 C 10,8 C 49 % 57 % 1009,6 hPa 0,0 l/m 16,9 km/h (3 Bft) SO 140 0 min
11.10.2018 15:10 22,2 C 22,2 C 10,8 C 49 % 57 % 1009,6 hPa 0,0 l/m 18,2 km/h (3 Bft) SO 135 0 min
11.10.2018 15:15 22,2 C 22,2 C 10,8 C 49 % 57 % 1009,6 hPa 0,0 l/m 15,1 km/h (3 Bft) S-SO 155 0 min
11.10.2018 15:20 22,3 C 22,3 C 10,8 C 49 % 58 % 1009,6 hPa 0,0 l/m 14,5 km/h (3 Bft) S-SO 150 0 min
11.10.2018 15:25 22,3 C 22,3 C 10,8 C 49 % 58 % 1009,6 hPa 0,0 l/m 10,9 km/h (2 Bft) S-SO 160 0 min
11.10.2018 15:30 22,3 C 22,2 C 10,8 C 49 % 58 % 1009,6 hPa 0,0 l/m 9,1 km/h (2 Bft) S-SO 160 0 min
11.10.2018 15:35 22,4 C 22,3 C 10,8 C 49 % 58 % 1009,6 hPa 0,0 l/m 13,3 km/h (3 Bft) SO 135 0 min
11.10.2018 15:40 22,4 C 22,3 C 10,8 C 49 % 58 % 1009,6 hPa 0,0 l/m 16,3 km/h (3 Bft) SO 145 0 min
11.10.2018 15:45 22,4 C 22,3 C 10,8 C 49 % 58 % 1009,6 hPa 0,0 l/m 13,9 km/h (3 Bft) S-SO 150 0 min
11.10.2018 15:50 22,4 C 22,3 C 10,8 C 49 % 59 % 1008,6 hPa 0,0 l/m 10,9 km/h (2 Bft) S-SO 160 0 min
11.10.2018 15:55 22,5 C 22,4 C 10,8 C 49 % 58 % 1008,6 hPa 0,0 l/m 18,8 km/h (3 Bft) S-SW 195 0 min
11.10.2018 16:00 22,5 C 22,4 C 10,8 C 49 % 58 % 1008,6 hPa 0,0 l/m 16,3 km/h (3 Bft) S-SO 155 0 min
11.10.2018 16:05 22,5 C 22,3 C 10,8 C 49 % 58 % 1009,6 hPa 0,0 l/m 9,1 km/h (2 Bft) O-SO 110 0 min
11.10.2018 16:10 22,5 C 22,4 C 10,8 C 49 % 58 % 1009,6 hPa 0,0 l/m 12,7 km/h (3 Bft) O 95 0 min
11.10.2018 16:15 22,5 C 22,3 C 10,8 C 49 % 58 % 1009,6 hPa 0,0 l/m 10,9 km/h (2 Bft) SO 125 0 min
11.10.2018 16:20 22,4 C 22,4 C 10,8 C 50 % 58 % 1009,6 hPa 0,0 l/m 14,5 km/h (3 Bft) O 85 0 min
11.10.2018 16:25 22,4 C 22,3 C 10,8 C 50 % 58 % 1009,6 hPa 0,0 l/m 18,2 km/h (3 Bft) S 185 0 min
11.10.2018 16:30 22,4 C 22,3 C 10,8 C 50 % 59 % 1009,6 hPa 0,0 l/m 20,0 km/h (4 Bft) SO 145 0 min
11.10.2018 16:35 22,4 C 22,4 C 10,8 C 50 % 59 % 1008,6 hPa 0,0 l/m 20,0 km/h (4 Bft) S 180 0 min
11.10.2018 16:40 22,6 C 22,4 C 10,8 C 50 % 59 % 1008,6 hPa 0,0 l/m 26,3 km/h (4 Bft) NO 55 1 min
11.10.2018 16:45 22,8 C 22,6 C 10,8 C 50 % 59 % 1008,6 hPa 0,0 l/m 20,0 km/h (4 Bft) SO 140 3 min
11.10.2018 16:50 23,2 C 22,7 C 10,8 C 48 % 58 % 1008,6 hPa 0,0 l/m 26,3 km/h (4 Bft) S 180 4 min
11.10.2018 16:55 23,4 C 22,9 C 10,8 C 48 % 58 % 1008,6 hPa 0,0 l/m 24,8 km/h (4 Bft) O-SO 105 3 min
11.10.2018 17:00 23,3 C 23,0 C 10,8 C 47 % 57 % 1008,6 hPa 0,0 l/m 21,8 km/h (4 Bft) S 175 0 min
11.10.2018 17:05 23,3 C 23,0 C 10,8 C 48 % 57 % 1008,6 hPa 0,0 l/m 23,0 km/h (4 Bft) O 100 0 min
11.10.2018 17:10 23,0 C 22,9 C 10,8 C 48 % 57 % 1008,6 hPa 0,0 l/m 19,4 km/h (3 Bft) S-SO 150 0 min
11.10.2018 17:15 22,8 C 22,8 C 10,8 C 48 % 57 % 1008,6 hPa 0,0 l/m 22,4 km/h (4 Bft) S-SO 160 0 min
11.10.2018 17:20 22,7 C 22,6 C 10,8 C 49 % 57 % 1008,6 hPa 0,0 l/m 14,5 km/h (3 Bft) SO 140 0 min
11.10.2018 17:25 22,6 C 22,6 C 10,8 C 49 % 57 % 1008,6 hPa 0,0 l/m 18,2 km/h (3 Bft) SO 135 0 min
11.10.2018 17:30 22,4 C 22,4 C 10,8 C 50 % 58 % 1008,6 hPa 0,0 l/m 16,3 km/h (3 Bft) O 85 0 min
11.10.2018 17:35 22,3 C 22,4 C 10,8 C 50 % 58 % 1008,6 hPa 0,0 l/m 17,6 km/h (3 Bft) O-SO 120 0 min
11.10.2018 17:40 22,2 C 22,2 C 10,8 C 51 % 59 % 1008,6 hPa 0,0 l/m 12,7 km/h (3 Bft) SO 135 0 min
11.10.2018 17:45 22,1 C 22,1 C 10,8 C 51 % 59 % 1008,6 hPa 0,0 l/m 9,7 km/h (2 Bft) S-SO 155 0 min
11.10.2018 17:50 22,3 C 22,1 C 10,8 C 51 % 59 % 1008,6 hPa 0,0 l/m 11,5 km/h (2 Bft) S-SO 160 1 min
11.10.2018 17:55 22,6 C 22,1 C 10,8 C 50 % 59 % 1008,6 hPa 0,0 l/m 12,7 km/h (3 Bft) O 100 6 min
11.10.2018 18:00 22,8 C 22,2 C 10,8 C 50 % 59 % 1008,6 hPa 0,0 l/m 10,9 km/h (2 Bft) O-SO 110 5 min
11.10.2018 18:05 22,8 C 22,2 C 10,8 C 50 % 59 % 1009,6 hPa 0,0 l/m 15,7 km/h (3 Bft) SO 135 2 min
11.10.2018 18:10 22,7 C 22,2 C 10,8 C 50 % 59 % 1009,6 hPa 0,0 l/m 15,7 km/h (3 Bft) S 170 0 min
11.10.2018 18:15 22,6 C 22,2 C 10,8 C 51 % 59 % 1009,6 hPa 0,0 l/m 10,9 km/h (2 Bft) SO 135 0 min
11.10.2018 18:20 22,5 C 22,2 C 10,8 C 51 % 59 % 1009,6 hPa 0,0 l/m 15,7 km/h (3 Bft) SO 145 0 min
11.10.2018 18:25 22,4 C 22,2 C 10,8 C 51 % 59 % 1009,6 hPa 0,0 l/m 13,3 km/h (3 Bft) S 190 0 min
11.10.2018 18:30 22,3 C 22,1 C 10,8 C 51 % 59 % 1009,6 hPa 0,0 l/m 15,7 km/h (3 Bft) S-SW 195 0 min
11.10.2018 18:35 22,1 C 22,1 C 10,8 C 51 % 59 % 1009,6 hPa 0,0 l/m 16,3 km/h (3 Bft) S-SO 160 0 min
11.10.2018 18:40 22,1 C 22,0 C 10,8 C 51 % 59 % 1009,6 hPa 0,0 l/m 14,5 km/h (3 Bft) SO 145 0 min
11.10.2018 18:45 21,9 C 21,8 C 10,8 C 52 % 60 % 1009,6 hPa 0,0 l/m 15,7 km/h (3 Bft) S-SW 195 0 min
11.10.2018 18:50 21,8 C 21,7 C 10,8 C 52 % 60 % 1009,6 hPa 0,0 l/m 15,7 km/h (3 Bft) S-SO 155 0 min
11.10.2018 18:55 21,6 C 21,6 C 10,8 C 52 % 60 % 1009,6 hPa 0,0 l/m 13,3 km/h (3 Bft) SO 140 0 min
11.10.2018 19:00 21,5 C 21,5 C 10,8 C 52 % 60 % 1009,6 hPa 0,0 l/m 13,3 km/h (3 Bft) SO 145 0 min
11.10.2018 19:05 21,4 C 21,3 C 10,8 C 53 % 60 % 1009,6 hPa 0,0 l/m 15,1 km/h (3 Bft) S-SO 160 0 min
11.10.2018 19:10 21,4 C 21,3 C 10,8 C 52 % 60 % 1009,6 hPa 0,0 l/m 13,3 km/h (3 Bft) SO 145 0 min
11.10.2018 19:15 21,2 C 21,2 C 10,8 C 53 % 61 % 1009,6 hPa 0,0 l/m 12,7 km/h (3 Bft) SO 140 0 min
11.10.2018 19:20 21,1 C 21,1 C 10,8 C 53 % 61 % 1010,6 hPa 0,0 l/m 13,9 km/h (3 Bft) O 100 0 min
11.10.2018 19:25 21,0 C 21,0 C 10,8 C 53 % 61 % 1010,6 hPa 0,0 l/m 10,9 km/h (2 Bft) SO 130 0 min
11.10.2018 19:30 21,0 C 20,9 C 10,8 C 54 % 61 % 1010,6 hPa 0,0 l/m 14,5 km/h (3 Bft) SO 125 0 min
11.10.2018 19:35 20,9 C 20,8 C 10,8 C 54 % 61 % 1009,6 hPa 0,0 l/m 13,9 km/h (3 Bft) SO 135 0 min
11.10.2018 19:40 20,7 C 20,7 C 10,8 C 55 % 61 % 1009,6 hPa 0,0 l/m 10,9 km/h (2 Bft) SO 145 0 min
11.10.2018 19:45 20,7 C 20,6 C 10,8 C 55 % 62 % 1009,6 hPa 0,0 l/m 10,9 km/h (2 Bft) S-SO 155 0 min
11.10.2018 19:50 20,7 C 20,6 C 10,8 C 55 % 63 % 1009,6 hPa 0,0 l/m 17,6 km/h (3 Bft) S 185 0 min
11.10.2018 19:55 20,7 C 20,6 C 10,8 C 55 % 63 % 1009,6 hPa 0,0 l/m 15,1 km/h (3 Bft) S-SW 195 0 min
11.10.2018 20:00 20,7 C 20,6 C 10,8 C 55 % 63 % 1009,6 hPa 0,0 l/m 18,8 km/h (3 Bft) SO 140 0 min
11.10.2018 20:05 20,6 C 20,5 C 10,8 C 56 % 63 % 1010,6 hPa 0,0 l/m 15,7 km/h (3 Bft) S-SO 155 0 min
11.10.2018 20:10 20,5 C 20,4 C 10,8 C 56 % 63 % 1010,6 hPa 0,0 l/m 11,5 km/h (2 Bft) S-SO 165 0 min
11.10.2018 20:15 20,6 C 20,4 C 10,8 C 56 % 63 % 1010,6 hPa 0,0 l/m 13,3 km/h (3 Bft) S-SO 155 0 min
11.10.2018 20:20 20,4 C 20,3 C 10,8 C 56 % 63 % 1009,6 hPa 0,0 l/m 14,5 km/h (3 Bft) S-SO 160 0 min
11.10.2018 20:25 20,5 C 20,3 C 10,8 C 56 % 63 % 1009,6 hPa 0,0 l/m 16,3 km/h (3 Bft) S-SO 160 0 min
11.10.2018 20:30 20,4 C 20,2 C 10,8 C 56 % 63 % 1009,6 hPa 0,0 l/m 12,1 km/h (2 Bft) S-SO 150 0 min
11.10.2018 20:35 20,3 C 20,2 C 10,8 C 56 % 63 % 1010,6 hPa 0,0 l/m 16,3 km/h (3 Bft) SO 140 0 min
11.10.2018 20:40 20,4 C 20,2 C 10,8 C 56 % 63 % 1010,6 hPa 0,0 l/m 20,6 km/h (4 Bft) SO 125 0 min
11.10.2018 20:45 20,2 C 20,1 C 10,8 C 56 % 63 % 1010,6 hPa 0,0 l/m 17,6 km/h (3 Bft) S-SO 160 0 min
11.10.2018 20:50 20,2 C 20,0 C 10,8 C 56 % 63 % 1010,6 hPa 0,0 l/m 18,8 km/h (3 Bft) SO 135 0 min
11.10.2018 20:55 20,2 C 20,0 C 10,8 C 56 % 64 % 1010,6 hPa 0,0 l/m 16,3 km/h (3 Bft) SO 140 0 min
11.10.2018 21:00 20,1 C 20,0 C 10,8 C 57 % 64 % 1010,6 hPa 0,0 l/m 19,4 km/h (3 Bft) SO 130 0 min
11.10.2018 21:05 19,9 C 19,9 C 10,8 C 57 % 64 % 1009,6 hPa 0,0 l/m 14,5 km/h (3 Bft) S-SW 205 0 min
11.10.2018 21:10 19,8 C 19,8 C 10,8 C 57 % 64 % 1009,6 hPa 0,0 l/m 15,7 km/h (3 Bft) S 180 0 min
11.10.2018 21:15 19,8 C 19,7 C 10,8 C 58 % 65 % 1009,6 hPa 0,0 l/m 10,9 km/h (2 Bft) S-SO 150 0 min
11.10.2018 21:20 19,7 C 19,6 C 10,8 C 58 % 65 % 1010,6 hPa 0,0 l/m 16,9 km/h (3 Bft) SO 140 0 min
11.10.2018 21:25 19,6 C 19,6 C 10,8 C 59 % 65 % 1010,6 hPa 0,0 l/m 15,1 km/h (3 Bft) S-SO 155 0 min
11.10.2018 21:30 19,5 C 19,5 C 10,8 C 59 % 65 % 1010,7 hPa 0,0 l/m 16,3 km/h (3 Bft) O-SO 120 0 min
11.10.2018 21:35 19,5 C 19,4 C 10,8 C 59 % 66 % 1009,6 hPa 0,0 l/m 16,3 km/h (3 Bft) NO 50 0 min
11.10.2018 21:40 19,5 C 19,4 C 10,8 C 59 % 66 % 1009,6 hPa 0,0 l/m 12,1 km/h (2 Bft) S-SO 150 0 min
11.10.2018 21:45 19,2 C 19,2 C 10,8 C 60 % 66 % 1009,7 hPa 0,0 l/m 9,1 km/h (2 Bft) S-SO 150 0 min
11.10.2018 21:50 19,1 C 19,1 C 10,8 C 60 % 66 % 1010,7 hPa 0,0 l/m 15,1 km/h (3 Bft) S-SO 150 0 min
11.10.2018 21:55 19,1 C 19,1 C 10,8 C 60 % 67 % 1010,7 hPa 0,0 l/m 14,5 km/h (3 Bft) O 85 0 min
11.10.2018 22:00 19,0 C 19,0 C 10,8 C 61 % 67 % 1010,7 hPa 0,0 l/m 12,1 km/h (2 Bft) S-SO 160 0 min
11.10.2018 22:05 18,9 C 18,9 C 10,8 C 61 % 67 % 1010,7 hPa 0,0 l/m 15,7 km/h (3 Bft) SO 140 0 min
11.10.2018 22:10 19,0 C 18,9 C 10,8 C 61 % 67 % 1010,7 hPa 0,0 l/m 22,4 km/h (4 Bft) S 175 0 min
11.10.2018 22:15 18,9 C 18,9 C 10,8 C 61 % 67 % 1010,7 hPa 0,0 l/m 18,2 km/h (3 Bft) SO 140 0 min
11.10.2018 22:20 18,9 C 18,8 C 10,8 C 61 % 68 % 1009,7 hPa 0,0 l/m 21,2 km/h (4 Bft) S-SO 150 0 min
11.10.2018 22:25 18,9 C 18,8 C 10,8 C 61 % 68 % 1009,7 hPa 0,0 l/m 16,3 km/h (3 Bft) S-SO 155 0 min
11.10.2018 22:30 18,7 C 18,7 C 10,8 C 62 % 68 % 1009,7 hPa 0,0 l/m 14,5 km/h (3 Bft) S-SO 160 0 min
11.10.2018 22:35 18,7 C 18,6 C 10,8 C 62 % 68 % 1010,7 hPa 0,0 l/m 14,5 km/h (3 Bft) S-SO 155 0 min
11.10.2018 22:40 18,6 C 18,6 C 10,8 C 62 % 68 % 1010,7 hPa 0,0 l/m 12,7 km/h (3 Bft) S-SO 160 0 min
11.10.2018 22:45 18,5 C 18,5 C 10,8 C 62 % 69 % 1010,7 hPa 0,0 l/m 16,9 km/h (3 Bft) S-SO 155 0 min
11.10.2018 22:50 18,6 C 18,5 C 10,8 C 62 % 69 % 1010,7 hPa 0,0 l/m 14,5 km/h (3 Bft) S 170 0 min
11.10.2018 22:55 18,5 C 18,4 C 10,8 C 62 % 69 % 1010,7 hPa 0,0 l/m 15,1 km/h (3 Bft) SO 135 0 min
11.10.2018 23:00 18,4 C 18,4 C 10,8 C 63 % 69 % 1010,7 hPa 0,0 l/m 17,6 km/h (3 Bft) S 180 0 min
11.10.2018 23:05 18,5 C 18,4 C 10,8 C 63 % 69 % 1010,7 hPa 0,0 l/m 11,5 km/h (2 Bft) S-SW 210 0 min
11.10.2018 23:10 18,5 C 18,4 C 10,8 C 62 % 69 % 1010,7 hPa 0,0 l/m 18,2 km/h (3 Bft) S-SO 165 0 min
11.10.2018 23:15 18,5 C 18,4 C 10,8 C 62 % 69 % 1010,7 hPa 0,0 l/m 14,5 km/h (3 Bft) SO 140 0 min
11.10.2018 23:20 18,4 C 18,3 C 10,8 C 63 % 69 % 1010,7 hPa 0,0 l/m 16,3 km/h (3 Bft) O-SO 110 0 min
11.10.2018 23:25 18,5 C 18,3 C 10,8 C 63 % 69 % 1010,7 hPa 0,0 l/m 18,2 km/h (3 Bft) S 180 0 min
11.10.2018 23:30 18,4 C 18,3 C 10,8 C 62 % 69 % 1010,7 hPa 0,0 l/m 19,4 km/h (3 Bft) SO 135 0 min
11.10.2018 23:35 18,5 C 18,3 C 10,8 C 62 % 69 % 1009,7 hPa 0,0 l/m 23,6 km/h (4 Bft) S 185 0 min
11.10.2018 23:40 18,4 C 18,3 C 10,8 C 62 % 69 % 1009,7 hPa 0,0 l/m 16,3 km/h (3 Bft) SO 135 0 min
11.10.2018 23:45 18,4 C 18,3 C 10,8 C 62 % 69 % 1009,7 hPa 0,0 l/m 16,3 km/h (3 Bft) SO 130 0 min
11.10.2018 23:50 18,4 C 18,3 C 10,8 C 63 % 69 % 1010,7 hPa 0,0 l/m 21,8 km/h (4 Bft) S 170 0 min
11.10.2018 23:55 18,3 C 18,3 C 10,8 C 63 % 69 % 1010,7 hPa 0,0 l/m 21,2 km/h (4 Bft) S-SO 155 0 min
_ Min-Zeit 07:20 07:05 00:00 13:35 13:35 06:55 - 00:25 - - -
Minimum _ 14,5 C 14,4 C 10,8 C 46 % 56 % 1007,7 hPa - 0,0 km/h (0 Bft) - - -
_ Max-Zeit 16:55 17:00 00:00 07:00 07:20 09:05 00:00 16:40 - - 10:00
Maximum _ 23,4 C 23,0 C 10,8 C 72 % 77 % 1010,7 hPa 0,0 l/m 26,3 km/h
NO (4 Bft)
- - 7 min
Durchschnitt _ 18,8 C 18,6 C 10,8 C 59 % 67 % 1009,6 hPa #0,0 l/m 13,2 km/h (3 Bft) S-SO - #3:38 h